Starlink 11495

operational
NORAD ID: 62275 Int'l Des: 2024-237 Owner: SPXS Country: US Constellation: starlink
LEOCIRCULAR

Starlink 11495について

説明を読み込み中...

リアルタイム位置

3D地球を読み込み中...

次回通過

高度履歴

Altitude vs Time

uPlot chart will show altitude changes over time

軌道要素

1 62275U 24237J 25353.81974054 .00010503 00000-0 85095-4 0 9996
2 62275 42.9978 178.6795 0000946 188.3433 171.7419 15.70880798 60431
Epoch: Dec 19, 2025 • Age: 7 hours

現在のステータス

高度 357.9 km
速度 7.70 km/s
衛星直下点 -12.12°S, 117.99°W
打ち上げ日 Dec 8, 2024
運用期間 1 years
タイプ internet

技術仕様

分類 Payload
質量 960.00 kg
乾燥質量 910.00 kg
総質量 960.00 kg
長さ 0.30 m
直径 4.10 m
スパン 29.00 m
形状 Box + pan
製造者 SPXS
バスタイプ Starlink V2MD
フェーズステータス In Orbit
所有者/国 SPXS/US

大規模コンステレーション

Loading constellations...